This demonstration page uses our WeatherBlox Daily Observations layout. Learn more.

Left ArrowRight Arrow

39.95238, -75.16362

Hourly Observations for September 20, 2019

Temp ( °F °C ) Dew Point ( °F °C ) Humidity (%) Winds ( mph kmh ) Pressure ( in mb ) Visibility ( mi km ) Precip ( " mm )
12:54 am 00:54 Mostly Clear 59 15 50 10 72 72 SSW 7 11 30.29 1026 10 16 0.00 0.00
1:54 am 01:54 Clear 57 13.9 51 10.6 81 81 SW 3 6 30.29 1026 10 16 0.00 0.00
2:54 am 02:54 Partly Cloudy 56 13.3 51 10.6 84 84 WSW 3 6 30.28 1026 10 16 0.00 0.00
3:54 am 03:54 Mostly Cloudy 56 13.3 49 9.4 77 77 W 5 7 30.28 1026 10 16 0.00 0.00
4:54 am 04:54 Partly Cloudy 55 12.8 48 8.9 77 77 W 6 9 30.29 1026 10 16 0.00 0.00
5:54 am 05:54 Partly Cloudy 55 12.8 48 8.9 77 77 WSW 6 9 30.29 1026 10 16 0.00 0.00
6:54 am 06:54 Partly Cloudy 55 12.8 50 10 83 83 WSW 5 7 30.30 1026 10 16 0.00 0.00
7:54 am 07:54 Partly Cloudy 57 13.9 51 10.6 81 81 W 3 6 30.31 1027 10 16 0.00 0.00
8:54 am 08:54 Partly Cloudy 61 16.1 53 11.7 75 75 W 5 7 30.32 1027 10 16 0.00 0.00
9:54 am 09:54 Partly Cloudy 64 17.8 52 11.1 65 65 WSW 7 11 30.32 1027 10 16 0.00 0.00
10:54 am 10:54 Mostly Cloudy 68 20 49 9.4 51 51 SW 10 17 30.30 1026 10 16 0.00 0.00
11:54 am 11:54 Mostly Cloudy 71 21.7 47 8.3 42 42 WSW 9 15 30.28 1025 10 16 0.00 0.00
12:54 pm 12:54 Mostly Cloudy 72 22.2 48 8.9 43 43 SSW 10 17 30.25 1025 10 16 0.00 0.00
1:54 pm 13:54 Mostly Cloudy 75 23.9 47 8.3 37 37 WSW 10 17 30.23 1024 10 16 0.00 0.00
2:54 pm 14:54 Mostly Cloudy 76 24.4 48 8.9 37 37 SW 12 19 30.21 1023 10 16 0.00 0.00
3:54 pm 15:54 Partly Cloudy 77 25 47 8.3 35 35 SW 9 15 30.19 1022 10 16 0.00 0.00
4:54 pm 16:54 Partly Cloudy 77 25 47 8.3 35 35 SSW 9 15 30.19 1022 10 16 0.00 0.00
5:54 pm 17:54 Sunny 77 25 46 7.8 33 33 SSW 9 15 30.19 1022 10 16 0.00 0.00
6:54 pm 18:54 Mostly Sunny 75 23.9 44 6.7 33 33 SW 10 17 30.19 1022 10 16 0.00 0.00
7:54 pm 19:54 Partly Cloudy 73 22.8 49 9.4 43 43 SW 13 20 30.20 1023 10 16 0.00 0.00
8:54 pm 20:54 Mostly Clear 70 21.1 51 10.6 51 51 SW 9 15 30.22 1023 10 16 0.00 0.00
9:54 pm 21:54 Mostly Clear 67 19.4 51 10.6 57 57 SW 8 13 30.23 1024 10 16 0.00 0.00
10:54 pm 22:54 Clear 66 18.9 53 11.7 63 63 SSW 5 7 30.22 1023 10 16 0.00 0.00
11:54 pm 23:54 Clear 64 17.8 54 12.2 70 70 SW 5 7 30.22 1024 10 16 0.00 0.00

Powered by AerisWeather